Location: Ecklingerode
(51.5036°N, 10.3122°E)
Time: 05:48:04
(UTC+00:00)

Resurs 01 Rocket - Pass Details

Date: 29 October 2020
Orbit: 635 x 644 km, 98.0° (Epoch: 01 December)

Event Time Altitude Azimuth Distance (km) Brightness Sun altitude
Exits shadow 19:11:36 11° 359° (N) 1,978 4.3 -30.6°
Drops below altitude 10° 19:11:46 10° 358° (N) 2,041 4.4 -30.7°
Sets 19:14:02 0° 351° (N) 2,948 5.4 -31.0°
